Regional Weather Roundup
Issued by NWS

Home | Current Version | Previous Version | Text Only | Print | Product List | Glossary Off
Versions: 1 2 3 4 5 6 7 8 9 10 11 12 13 14 15 16 17 18 19 20 21 22 23 24 25 26 27 28 29 30 31 32 33 34 35 36 37 38 39 40 41 42 43 44 45 46 47 48 49 50

000
ASUS43 KOAX 062302
RWRNE

WEATHER ROUNDUP FOR NEBRASKA
NATIONAL WEATHER SERVICE OMAHA NE
500 PM CST FRI MAR 06 2015

NOTES: SATELLITE DATA IS BEING USED TO AUGMENT CLOUD COVER ABOVE
       12000 FEET.
       "FAIR" INDICATES FEW OR NO CLOUDS BELOW 12,000 FEET WITH NO
       SIGNIFICANT WEATHER AND/OR OBSTRUCTIONS TO VISIBILITY.

  * THESE STATIONS DO NOT REPORT WEATHER SUCH AS RAIN...SNOW OR FOG.

NEZ001>004-019>022-054>056-070000-
NEBRASKA PANHANDLE

CITY           SKY/WX    TMP DP  RH WIND       PRES   REMARKS
SCOTTSBLUFF    SUNNY     55  16  21 W18G26    30.19S
ALLIANCE       SUNNY     55  14  19 NW21      30.15F
CHADRON        SUNNY     53  23  31 W18       30.13F
KIMBALL        SUNNY     52  18  26 NW17G25   30.19F
SIDNEY         SUNNY     55  16  21 NW23G29   30.20F
$$

NEZ057>060-069>072-079>082-070000-
SOUTHWEST NEBRASKA

CITY           SKY/WX    TMP DP  RH WIND       PRES   REMARKS
NORTH PLATTE   SUNNY     62  13  14 W18G24    30.14S
IMPERIAL         N/A     61  13  15 NW17      30.17S
LEXINGTON      SUNNY     63  17  16 W20       30.14S
MCCOOK         SUNNY     65  15  14 W13G23    30.15F
$$

NEZ005>010-023>029-035>040-094-070000-
NORTH CENTRAL NEBRASKA

CITY           SKY/WX    TMP DP  RH WIND       PRES   REMARKS
VALENTINE      MOSUNNY   57  17  21 NW12G20   30.09F
AINSWORTH      MOSUNNY   56  17  22 NW14      30.09S
BROKEN BOW     MOSUNNY   62  18  18 NW17      30.11S
ORD            MOSUNNY   62  13  14 NW16      30.09F
$$

NEZ041-046>049-061>064-073>077-083>087-070000-
SOUTH CENTRAL NEBRASKA

CITY           SKY/WX    TMP DP  RH WIND       PRES   REMARKS
GRAND ISLAND   SUNNY     62  18  18 W13       30.12F
HASTINGS       SUNNY     62  16  16 W16       30.12F
HEBRON         SUNNY     62  11  13 W9        30.15S
KEARNEY *      SUNNY     63  19  19 W9        30.13F
YORK           SUNNY     61  18  18 NW17      30.12S
$$

NEZ011>018-030>034-042>045-070000-
NORTHEAST NEBRASKA

CITY           SKY/WX    TMP DP  RH WIND       PRES   REMARKS
NORFOLK        SUNNY     58  15  18 W12       30.08S
BLAIR          SUNNY     61  17  18 W13G20    30.10S
COLUMBUS *     SUNNY     61  16  17 W15       30.12S
FREMONT        SUNNY     62  14  15 W9        30.11S
TEKAMAH        SUNNY     61  22  22 NW10      30.09S
$$

NEZ050>053-065>068-078-088>093-070000-
SOUTHEAST NEBRASKA

CITY           SKY/WX    TMP DP  RH WIND       PRES   REMARKS
LINCOLN        SUNNY     63  13  14 W9        30.13F
OMAHA EPPLEY   MOSUNNY   61  16  17 W13G23    30.10F
FALLS CITY     SUNNY     62  15  16 W15       30.16F
$$

NEZ044-045-051>053-067-070000-
OMAHA AREA

CITY           SKY/WX    TMP DP  RH WIND       PRES   REMARKS
OMAHA EPPLEY   MOSUNNY   61  16  17 W13G23    30.10F
BLAIR          SUNNY     61  17  18 W13G20    30.10S
FREMONT        SUNNY     62  14  15 W9        30.11S
OFFUTT AFB     SUNNY     61  16  17 W14       30.10F
$$



USA.gov is the U.S. government's official web portal to all federal, state and local government web resources and services.